AO-07 1 07530U 74089B 22174.49607407 -.00000033 00000-0 82979-4 0 9992 2 07530 101.9040 154.3851 0012532 31.8827 81.9863 12.53655558178221 UO-11 1 14781U 84021B 22174.52107889 .00000678 00000-0 88125-4 0 9991 2 14781 97.6171 161.6785 0007107 309.3783 50.6802 14.83687613 40941 LO-19 1 20442U 90005G 22174.66410738 .00000083 00000-0 47030-4 0 9996 2 20442 98.7939 139.6203 0012296 145.9216 214.2759 14.33065711694056 HUBBLE 1 20580U 90037B 22174.58719863 .00001794 00000-0 95104-4 0 9991 2 20580 28.4692 128.1566 0002749 101.9382 62.4186 15.10599991567142 MET-2/21 1 22782U 93055A 22174.50012990 .00000058 00000-0 39159-4 0 9999 2 22782 82.5490 9.4395 0021689 333.9442 85.8828 13.83856675454841 AO-27 1 22825U 93061C 22174.32131931 .00000061 00000-0 41429-4 0 9998 2 22825 98.8861 205.4832 0009137 40.8002 319.3862 14.30176396498990 IO-26 1 22826U 93061D 22174.48299647 .00000067 00000-0 43561-4 0 9990 2 22826 98.8804 205.5271 0009434 27.5677 332.6004 14.30522502499278 FO-29 1 24278U 96046B 22174.34784239 .00000003 00000-0 41681-4 0 9991 2 24278 98.5154 197.2270 0349210 268.0179 88.0943 13.53116274276401 NOAA-15 1 25338U 98030A 22174.80435091 .00000145 00000-0 79100-4 0 9998 2 25338 98.6431 204.2569 0009149 280.1981 79.8167 14.26141802254170 GO-32 1 25397U 98043D 22174.47249856 .00000027 00000-0 31469-4 0 9997 2 25397 98.8182 124.9565 0002406 88.9274 271.2179 14.23758483244280 ISS 1 25544U 98067A 22174.84926581 .00005844 00000-0 11089-3 0 9992 2 25544 51.6436 303.5894 0004138 295.0107 201.1713 15.49841222346218 NO-44 1 26931U 01043C 22174.39400659 .00000065 00000-0 56528-4 0 9992 2 26931 67.0521 43.0650 0007539 262.7906 97.2339 14.30710578 82254 SO-50 1 27607U 02058C 22174.55413183 .00000456 00000-0 83164-4 0 9994 2 27607 64.5552 283.2322 0078760 293.2517 66.0307 14.76140564 49272 CO-55 1 27844U 03031E 22174.47583004 .00000201 00000-0 10964-3 0 9995 2 27844 98.6777 182.0712 0011164 85.4588 274.7865 14.22457382984764 CO-57 1 27848U 03031J 22174.22960217 .00000185 00000-0 10321-3 0 9995 2 27848 98.6823 182.3472 0011014 98.6405 261.6021 14.22013733984503 RS-22 1 27939U 03042A 22174.80768952 .00000696 00000-0 13184-3 0 9991 2 27939 98.1928 315.5269 0013005 182.2774 177.8380 14.67367987 1979 NOAA-18 1 28654U 05018A 22174.72196889 .00000121 00000-0 89586-4 0 9999 2 28654 98.9488 245.1531 0013358 316.9045 43.1080 14.12745176880956 CO-58 1 28895U 05043F 22174.32691194 .00000820 00000-0 16397-3 0 9994 2 28895 98.1074 305.6147 0017865 121.0788 239.2171 14.64356791888277 Falconsat-3 1 30776U 07006E 22174.81449136 .00026837 00000-0 40325-3 0 9991 2 30776 35.4301 218.5889 0002906 166.7205 193.3604 15.53896846850572 CO-65 1 32785U 08021C 22174.40876410 .00001624 00000-0 17550-3 0 9996 2 32785 97.6572 145.0684 0011709 207.8840 152.1751 14.89612187767377 AAUSAT2 1 32788U 08021F 22174.51810409 .00003994 00000-0 34651-3 0 9990 2 32788 97.5340 159.6177 0013501 99.9147 260.3600 14.97536170769342 DO-64 1 32789U 08021G 22174.29934662 .00011858 00000-0 65670-3 0 9997 2 32789 97.3384 200.3862 0008374 309.2363 50.8125 15.13940628772819 CO-66 1 32791U 08021J 22174.47612587 .00002559 00000-0 25300-3 0 9993 2 32791 97.6109 150.6210 0013156 162.2505 197.9177 14.92697787768178 RS-30 1 32953U 08025A 22174.73680131 .00000024 00000-0 10000-3 0 9992 2 32953 82.5030 180.0286 0018001 245.2133 114.7071 12.43111209639112 PRISM 1 33493U 09002B 22174.48251002 .00003474 00000-0 28508-3 0 9995 2 33493 98.2257 161.3979 0015782 148.6523 211.5643 14.99854676729880 NOAA-19 1 33591U 09005A 22174.79480036 .00000130 00000-0 95292-4 0 9993 2 33591 99.1469 209.0650 0014205 166.2031 193.9531 14.12579774689342 SRMSAT 1 37841U 11058D 22174.50313889 .00000339 00000-0 41307-4 0 9995 2 37841 19.9703 218.3528 0012036 50.9745 91.7570 14.10757371552091 HRBE 1 37855U 11061F 22174.59047782 .00007979 00000-0 35053-3 0 9996 2 37855 101.7094 296.9123 0152799 44.0601 317.2673 15.12509371582639 RS-40 1 38735U 12041C 22174.85633193 .00000037 00000-0 19644-3 0 9995 2 38735 82.4769 261.4975 0016881 1.5182 358.5940 12.42586336449314 ZACUBE-1 1 39417U 13066B 22174.84751344 .00001712 00000-0 21404-3 0 9997 2 39417 97.6358 146.0552 0058579 25.2757 335.1303 14.82365832464070 Delfi-N3xt 1 39428U 13066N 22174.38350419 .00001598 00000-0 25325-3 0 9994 2 39428 97.8146 108.4868 0115667 258.9339 99.8842 14.69212269459407 GOMX-1 1 39430U 13066Q 22174.82754655 .00001738 00000-0 31664-3 0 9995 2 39430 97.8096 81.6618 0150109 25.3255 335.5208 14.60206929457223 LO-74 1 39440U 13066AA 22174.41728138 .00001386 00000-0 19348-3 0 9992 2 39440 97.7262 131.7233 0080212 111.6282 249.3497 14.77018760461166 AO-73 1 39444U 13066AE 22174.38738174 .00002381 00000-0 28797-3 0 9997 2 39444 97.6239 148.0218 0057141 15.1577 345.1333 14.83453731462407 SPROUT 1 39770U 14029E 22174.82499296 .00006263 00000-0 63901-3 0 9996 2 39770 97.9436 291.8015 0009911 71.9159 288.3136 14.90970376438613 DTUSAT-2 1 40030U 14033W 22174.48880982 .00002115 00000-0 22512-3 0 9995 2 40030 97.9372 107.2797 0012763 40.1890 320.0268 14.89979383434542 EO-80 1 40032U 14033Y 22174.59545420 .00001445 00000-0 15575-3 0 9990 2 40032 97.9377 107.4003 0012732 40.6028 319.6137 14.89950540434537 HODOYOSHI-1 1 40299U 14070B 22174.83250910 .00005186 00000-0 19792-3 0 9991 2 40299 97.2424 242.7721 0013991 112.3526 354.7615 15.26995765424031 FIREBIRD FU3 1 40377U 15003B 22174.51466999 .00015277 00000-0 45470-3 0 9990 2 40377 99.1006 40.7773 0100064 5.5254 354.7060 15.29957320409346 FIREBIRD FU4 1 40378U 15003C 22174.53986163 .00014960 00000-0 44402-3 0 9995 2 40378 99.1013 41.0197 0100000 5.0923 355.1304 15.30054917409356 GRIFEX 1 40379U 15003D 22174.82424502 .00008786 00000-0 31001-3 0 9992 2 40379 99.1121 27.2199 0116148 46.3250 314.7536 15.23317418408601 XW-2A 1 40903U 15049E 22174.84542934 .00022003 00000-0 34345-3 0 9999 2 40903 97.1782 233.3879 0011386 98.7259 23.6881 15.53761597380251 XW-2C 1 40906U 15049H 22174.86001483 .00005475 00000-0 26321-3 0 9992 2 40906 97.4927 178.2219 0013274 344.7960 134.4507 15.19150216373894 XW-2D 1 40907U 15049J 22174.87981750 .00006201 00000-0 29217-3 0 9993 2 40907 97.4906 178.2270 0012322 340.8185 135.0237 15.19808747373940 LILACSAT-2 1 40908U 15049K 22174.83367078 .00002825 00000-0 15091-3 0 9994 2 40908 97.5157 175.3529 0015430 1.8509 119.3452 15.15833916373454 XW-2E 1 40909U 15049L 22174.84595115 .00009437 00000-0 39590-3 0 9997 2 40909 97.4647 182.7313 0010594 320.2953 161.7071 15.23652812374382 XW-2F 1 40910U 15049M 22174.84160942 .00009376 00000-0 39940-3 0 9996 2 40910 97.4722 181.8635 0011589 320.8135 161.1694 15.23126209374154 XW-2B 1 40911U 15049N 22174.84060509 .00005996 00000-0 28352-3 0 9994 2 40911 97.4899 178.7874 0012365 342.3222 139.2514 15.19694489373824 DCBB 1 40912U 15049P 22174.83290686 .00010655 00000-0 41353-3 0 9999 2 40912 97.4361 186.2042 0010609 279.9964 204.4883 15.26230237374726 TW-1A 1 40928U 15051D 22174.90582356 .00042459 00000-0 51849-3 0 9993 2 40928 97.0376 197.5017 0006938 24.5757 95.5741 15.60306832379243 IO-86 1 40931U 15052B 22174.25862816 .00000925 00000-0 39392-4 0 9990 2 40931 5.9997 127.6729 0013207 254.5543 105.3135 14.76820277364200 AO-85 1 40967U 15058D 22173.39270692 .00001190 00000-0 13961-3 0 4009 2 40967 64.7759 57.0150 0194643 198.9014 160.4799 14.77428915 61396 ATHENOXAT-1 1 41168U 15077C 22174.33361083 .00013682 00000-0 56144-3 0 9996 2 41168 14.9828 46.8379 0009515 320.1022 186.9604 15.21139809361206 ChubuSat-2 1 41338U 16012B 22174.78176338 .00001813 00000-0 13047-3 0 9999 2 41338 31.0038 343.6024 0013345 216.0360 143.9376 15.01406181348434 ChubuSat-3 1 41339U 16012C 22174.77424192 .00001954 00000-0 14088-3 0 9995 2 41339 31.0123 340.5830 0013156 224.7085 135.2475 15.01484462348433 Horyu-4 1 41340U 16012D 22174.48065099 .00002907 00000-0 20229-3 0 9995 2 41340 31.0052 320.6352 0013293 260.7741 99.1392 15.03362254348639 [email protected] 1 41459U 16025D 22174.70354818 .00009606 00000-0 41777-3 0 9999 2 41459 98.1873 340.3198 0144129 247.7940 110.7947 15.13533519338440 AAUSAT4 1 41460U 16025E 22174.73056766 .00018550 00000-0 71048-3 0 9997 2 41460 98.1798 346.6044 0125083 223.5174 135.6110 15.19517376338892 LO-87 1 41557U 16033B 22174.84596970 .00012142 00000-0 36090-3 0 9990 2 41557 97.3880 272.5527 0010415 3.0890 145.1744 15.34852657338365 NuSat2 1 41558U 16033C 22174.86552638 .00011456 00000-0 32073-3 0 9990 2 41558 97.4084 278.3098 0009522 351.9839 156.1462 15.36755880338636 Lapan A3 1 41603U 16040E 22174.81196436 .00001487 00000-0 70503-4 0 9998 2 41603 97.2051 211.5636 0014344 133.0003 282.2672 15.20691011333004 Pratham 1 41783U 16059A 22174.37613990 .00000406 00000-0 86730-4 0 9996 2 41783 97.9127 215.6943 0034110 153.1095 207.1885 14.63362622306491 TY-1 1 41844U 16066D 22174.83697081 .00012455 00000-0 42232-3 0 9991 2 41844 97.3886 186.8116 0010717 264.3208 219.9065 15.30625853312585 CAS-2T 1 41847U 16066G 22174.60278449 .00000860 00000-0 13885-3 0 9991 2 41847 98.5508 239.2683 0363640 191.3069 167.9787 14.38593601295231 EO-88 1 42017U 17008BX 22174.82369898 .00012879 00000-0 38336-3 0 9992 2 42017 97.2687 240.8452 0004610 201.0077 159.0978 15.34830786298056 CAS-4B 1 42759U 17034B 22174.86342753 .00004376 00000-0 26317-3 0 9998 2 42759 43.0180 297.3696 0010049 323.7598 181.4931 15.11966773277322 CAS-4A 1 42761U 17034D 22174.83128697 .00003694 00000-0 22368-3 0 9991 2 42761 43.0180 296.3287 0010395 326.1737 171.1507 15.12051119277321 NIUSat 1 42766U 17036B 22174.36103456 .00007982 00000-0 30818-3 0 9995 2 42766 97.2016 211.9711 0011804 310.7163 49.3050 15.26466212277708 Aalto 1 1 42775U 17036L 22174.00820552 .00006179 00000-0 24481-3 0 9995 2 42775 97.1973 211.5459 0010801 312.0892 47.9428 15.25706495277627 URSA MAIOR 1 42776U 17036M 22174.38049387 .00007465 00000-0 29018-3 0 9996 2 42776 97.1986 212.6378 0010424 309.2376 50.7937 15.26274719277717 Max Valier Sat 1 42778U 17036P 22174.41758426 .00007684 00000-0 29138-3 0 9999 2 42778 97.2049 215.3136 0008949 310.9206 49.1258 15.27103412277813 Pegasus 1 42784U 17036V 22174.39770284 .00010805 00000-0 38553-3 0 9999 2 42784 97.1988 216.1368 0008330 311.7667 48.2861 15.29015437277924 NUDATSat 1 42787U 17036Y 22174.56196631 .00019926 00000-0 60878-3 0 9997 2 42787 97.2025 220.4349 0006495 298.6217 61.4364 15.33898083278030 SUCHAI 1 1 42788U 17036Z 22174.45216451 .00011742 00000-0 39632-3 0 9991 2 42788 97.1995 217.8362 0007430 304.7951 55.2591 15.30812616278101 SKCUBE 1 42789U 17036AA 22174.45173496 .00010543 00000-0 36456-3 0 9992 2 42789 97.1992 217.2970 0007541 306.6112 53.4435 15.30051995277999 VZLUSAT 1 1 42790U 17036AB 22174.43952687 .00016417 00000-0 50467-3 0 9993 2 42790 97.2019 220.2823 0006213 294.3933 65.6661 15.33744713278168 VENTA 1 1 42791U 17036AC 22174.42111125 .00008895 00000-0 31369-3 0 9998 2 42791 97.1994 217.1510 0007376 308.5224 51.5355 15.29460436277974 Robusta 1B 1 42792U 17036AD 22174.40543850 .00012523 00000-0 42571-3 0 9991 2 42792 97.1992 217.8177 0007098 306.9309 53.1282 15.30566956278037 D-SAT 1 42794U 17036AF 22174.51464817 .00002191 00000-0 18772-3 0 9996 2 42794 97.4506 179.6046 0124730 65.2982 296.1163 14.92662520272388 TechnoSat 1 42829U 17042E 22174.58942860 .00000997 00000-0 10371-3 0 9997 2 42829 97.4208 28.3699 0013759 353.9372 6.1679 14.91879094269009 QIKCOM-1 1 42983U 98067NF 22174.36503669 .00209478 29792-4 37864-3 0 9994 2 42983 51.6259 149.9468 0004903 32.5322 327.5989 16.01097798265880 AO-91 1 43017U 17073E 22174.65361568 .00002604 00000-0 19888-3 0 9998 2 43017 97.6752 68.5943 0248831 167.2112 193.5573 14.81426975248031 PICSAT 1 43132U 18004X 22173.78577763 .00012395 00000-0 40883-3 0 9997 2 43132 97.3719 250.1339 0006559 350.9911 9.1212 15.31556717247220 AO-92 1 43137U 18004AC 22174.44171908 .00008366 00000-0 29487-3 0 9997 2 43137 97.3685 249.5440 0006856 353.1602 6.9544 15.29509385247256 TianYi 2 1 43155U 18008A 22174.91943689 .00007376 00000-0 39197-3 0 9995 2 43155 97.3522 233.1097 0017891 120.2336 52.9770 15.15438606244252 Zhou Enlai 1 43156U 18008B 22174.85939634 .00007412 00000-0 39671-3 0 9992 2 43156 97.3560 232.9282 0015081 120.2255 357.1104 15.15223152244177 TianYi 6 1 43158U 18008D 22174.83555116 .00006351 00000-0 35078-3 0 9999 2 43158 97.3526 230.8733 0014379 119.9988 295.2213 15.14169165244070 S-Net D 1 43186U 18014G 22174.17330587 .00001234 00000-0 10957-3 0 9991 2 43186 97.6591 79.8049 0008978 283.3791 76.6430 14.97938328239771 S-Net B 1 43187U 18014H 22174.17344335 .00001197 00000-0 10643-3 0 9998 2 43187 97.6588 79.7563 0008998 283.2770 76.7448 14.97936308239772 S-Net A 1 43188U 18014J 22174.64132442 .00001040 00000-0 93072-4 0 9990 2 43188 97.6592 80.2790 0009024 281.6241 78.3968 14.97936287239842 S-Net C 1 43189U 18014K 22174.17443658 .00001135 00000-0 10119-3 0 9998 2 43189 97.6588 79.7460 0009067 283.3573 76.6638 14.97932927238323 FMN 1 1 43192U 18015A 22174.87536188 .00026198 00000-0 68493-3 0 9995 2 43192 97.5357 320.1572 0010056 12.3267 112.7465 15.38690091244435 Shaonian Xing 1 43199U 18015H 22174.90036663 .00015742 00000-0 47215-3 0 9991 2 43199 97.5142 315.3308 0012852 25.1994 95.2058 15.34479691244432 SurfSat 1 43614U 18070B 22174.49823893 .00034698 00000-0 50243-3 0 9993 2 43614 93.0298 101.3175 0010605 16.3368 343.8235 15.55709184212006 CP-7 DAVE 1 43615U 18070C 22174.25433270 .00034648 00000-0 52553-3 0 9995 2 43615 93.0299 101.0633 0011272 18.6416 341.5257 15.54430922211934 ELFIN-B 1 43616U 18070D 22173.80979012 .00089618 00000-0 79414-3 0 9997 2 43616 93.0198 102.0942 0007188 26.4922 333.6714 15.68290014212197 ELFIN-A 1 43617U 18070E 22174.50611709 .00095380 00000-0 76026-3 0 9991 2 43617 93.0259 103.7590 0005465 27.3740 332.7819 15.70864138212358 CubeBel-1 1 43666U 18083E 22174.77027458 .00009081 00000-0 38427-3 0 9996 2 43666 97.4206 203.3837 0011572 316.4709 157.3611 15.23358806202444 Changshagaoxin 1 43669U 18083H 22174.83440469 .00008528 00000-0 37848-3 0 9998 2 43669 97.4139 199.4047 0008131 316.8498 217.7401 15.21786292202277 Ten-Koh 1 43677U 18084G 22174.31774890 .00001276 00000-0 13443-3 0 9997 2 43677 97.9650 304.4210 0014535 250.3161 109.6489 14.91112954198557 PO-101 1 43678U 18084H 22174.81993444 .00001139 00000-0 11757-3 0 9995 2 43678 97.9716 308.1601 0008379 263.7644 96.2608 14.92186047198806 IRVINE 01 1 43693U 18088D 22174.84202992 .00030606 00000-0 80661-3 0 9991 2 43693 85.0280 306.5134 0013025 90.8781 269.3962 15.38278707201206 QO-100 1 43700U 18090A 22174.46581293 .00000146 00000-0 00000-0 0 9997 2 43700 0.0178 32.7040 0001110 80.3441 352.0307 1.00272579 13097 Reaktor Hello World 1 43743U 18096AA 22174.46639703 .00010716 00000-0 32555-3 0 9997 2 43743 97.3527 254.3071 0015547 43.8556 316.3919 15.34125457198884 MinXSS-2 1 43758U 18099A 22174.46310666 .00002862 00000-0 25070-3 0 9997 2 43758 97.6234 242.2350 0013715 240.3991 119.5865 14.97395336194002 AO-95 1 43770U 18099N 22174.40768411 .00002615 00000-0 23510-3 0 9993 2 43770 97.6211 240.6031 0012343 252.9217 107.0653 14.96468845193905 RANGE-B 1 43772U 18099Q 22174.66701907 .00003105 00000-0 27377-3 0 9990 2 43772 97.6314 242.5439 0012343 235.6800 124.3255 14.97096984193968 RANGE-A 1 43773U 18099R 22174.46514847 .00002052 00000-0 18751-3 0 9990 2 43773 97.6132 239.5324 0011846 238.5552 121.4512 14.96052729193893 MOVE-II 1 43780U 18099Y 22174.42897309 .00002982 00000-0 25867-3 0 9999 2 43780 97.6245 241.7601 0011515 248.3239 111.6758 14.97767633193951 SNUSat 2 1 43782U 18099AA 22174.45408442 .00002179 00000-0 19594-3 0 9998 2 43782 97.6201 241.1118 0011266 235.9688 124.0465 14.96626984193938 SnugLite 1 43784U 18099AC 22174.82507028 .00001270 00000-0 11559-3 0 9995 2 43784 97.6172 241.1147 0013260 244.9282 115.0564 14.96848119194011 ITASat 1 1 43786U 18099AE 22174.66783041 .00002316 00000-0 20799-3 0 9998 2 43786 97.6232 241.7783 0013236 243.5768 116.4096 14.96608278193989 EAGLET 1 1 43790U 18099AJ 22174.42860179 .00000995 00000-0 91897-4 0 9994 2 43790 97.6227 242.0787 0011607 249.9500 110.0472 14.96781449193687 ESEO 1 43792U 18099AL 22174.76674584 .00000266 00000-0 28561-4 0 9995 2 43792 97.6178 241.6181 0011812 246.0119 113.9867 14.96202899193776 CSIM 1 43793U 18099AM 22174.46654857 .00003958 00000-0 33585-3 0 9996 2 43793 97.6243 242.6906 0011007 233.7481 126.2725 14.98444016193789 Astrocast 0.1 1 43798U 18099AS 22174.14560791 .00003845 00000-0 33300-3 0 9999 2 43798 97.6245 242.2682 0010730 221.2454 138.7959 14.97665916193967 JO-97 1 43803U 18099AX 22174.41619564 .00002237 00000-0 19848-3 0 9994 2 43803 97.6203 241.2903 0012973 244.1442 115.8443 14.97113659193961 Suomi 100 1 43804U 18099AY 22174.43437205 .00001630 00000-0 14636-3 0 9993 2 43804 97.6185 241.2296 0013604 245.5403 114.4400 14.97007897193975 Al Farabi 2 1 43805U 18099AZ 22174.48610902 .00003519 00000-0 30570-3 0 9999 2 43805 97.6221 241.7683 0012837 242.7866 117.2045 14.97589527194007 CHOMPTT 1 43855U 18104G 22174.07609262 .00006972 00000-0 25575-3 0 9998 2 43855 85.0362 47.4028 0013930 209.3996 150.6467 15.27674397195588 ISAT 1 43879U 18111D 22174.47575242 .00002778 00000-0 23976-3 0 9999 2 43879 97.6644 79.9770 0011001 303.4860 56.5310 14.98032539190571 UWE-4 1 43880U 18111E 22174.47845234 .00002664 00000-0 22925-3 0 9999 2 43880 97.6674 80.6836 0010177 304.4732 55.5529 14.98187973190608 Sparrow 1 43881U 18111F 22174.49514771 .00003310 00000-0 28246-3 0 9992 2 43881 97.6706 80.9286 0009944 305.1113 54.9177 14.98350320190619 Lume 1 1 43908U 18111AJ 22174.59113220 .00008779 00000-0 29831-3 0 9992 2 43908 97.1918 62.2056 0020161 56.0754 304.2401 15.30500711194336 FO-99 1 43937U 19003F 22174.83701949 .00010382 00000-0 34811-3 0 9990 2 43937 97.1300 207.9393 0022392 128.5790 231.7462 15.30835008190953 MYSat 1 1 44045U 18092F 22173.92767896 .00045918 00000-0 66867-3 0 9999 2 44045 51.6329 45.3599 0009834 125.0722 235.1192 15.55209652188722 AstroCast 0.2 1 44083U 19018F 22174.13330718 .00014905 00000-0 56592-3 0 9999 2 44083 97.3217 232.8875 0012435 107.5074 252.7525 15.26852094179359 AISTechSat 3 1 44103U 19018AB 22174.12235330 .00008589 00000-0 31968-3 0 9996 2 44103 97.3082 233.2573 0013855 114.0757 246.1933 15.27637551179518 AISat 1 1 44104U 19018AC 22174.49143059 .00007775 00000-0 21700-3 0 9992 2 44104 97.3957 257.6487 0053720 111.4332 249.2653 15.35537748180521 Prox-1 1 44339U 19036A 22174.29438834 .00002809 00000-0 59020-3 0 9997 2 44339 23.9993 156.6051 0010018 279.4280 80.5079 14.55085954159208 Oculus-ASR 1 44348U 19036K 22174.37127667 .00073710 -49181-5 69062-3 0 9990 2 44348 28.5004 151.3681 0237449 17.9550 342.9273 15.37484862165454 Armadillo 1 44352U 19036P 22174.40282152 .00195081 43856-5 82049-3 0 9998 2 44352 28.5215 72.1954 0119487 143.9129 216.9613 15.73847214166193 NO-104 1 44354U 19036R 22174.23326287 .00078557 -46657-5 69494-3 0 9999 2 44354 28.5233 138.2719 0227362 35.8017 325.7595 15.40570483165579 Move-IIb 1 44398U 19038N 22174.55209092 .00011755 00000-0 56585-3 0 9998 2 44398 97.6286 143.9533 0023659 104.8267 255.5586 15.18677151163962 SONATE 1 44400U 19038Q 22174.60080770 .00004432 00000-0 24139-3 0 9992 2 44400 97.6394 143.1305 0025244 109.6249 250.7703 15.14679821163869 BeeSat 9 1 44412U 19038AC 22174.45412458 .00007150 00000-0 36371-3 0 9991 2 44412 97.6347 143.7827 0022296 111.7199 248.6410 15.16932720163602 JAISAT-1 1 44419U 19038F 22174.37203519 .00007007 00000-0 35191-3 0 9995 2 44419 97.6354 144.5422 0021309 109.2702 251.0839 15.17407995163956 LightSail-2 1 44420U 19036AC 22174.44924716 .00057993 00000-0 73560-2 0 9992 2 44420 23.9997 92.5896 0006656 21.1469 338.9303 14.80282483158092 Taurus 1 1 44530U 19059C 22174.85196088 .00002186 00000-0 61121-3 0 9992 2 44530 98.5475 273.4236 0015307 101.5034 258.7872 14.47102448146772 Duchifat 3 1 44854U 19089C 22174.82574338 .00003638 00000-0 28447-3 0 9996 2 44854 36.9660 62.5665 0009750 276.7347 83.2277 15.01123366138890 OPS-SAT 1 44878U 19092F 22174.25118015 .00007974 00000-0 37119-3 0 9992 2 44878 97.4803 358.1512 0011264 325.3608 34.6892 15.20144599139072 TO-108 1 44881U 19093C 22174.85884744 .00000614 00000-0 84418-4 0 9991 2 44881 97.8924 253.9758 0015411 160.2036 199.9770 14.81736404135723 FloripaSat 1 1 44885U 19093G 22174.82141518 .00002035 00000-0 25558-3 0 9995 2 44885 97.8970 255.2357 0014866 166.2735 193.8878 14.83166151135790 RS-44 1 44909U 19096E 22174.83616097 .00000015 00000-0 23853-4 0 9998 2 44909 82.5211 226.0352 0216366 305.0040 53.0920 12.79713521116367 BY70-2 1 45857U 20042B 22174.84983841 .00007122 00000-0 94902-3 0 9997 2 45857 97.9544 251.6282 0012457 98.4261 261.8349 14.79893557106406 UPMSat 2 1 46276U 20061E 22174.50258733 .00003096 00000-0 15452-3 0 9991 2 46276 97.3916 245.1881 0002827 121.7221 238.4289 15.18234548 99797 AmicalSat 1 46287U 20061R 22174.43267068 .00004176 00000-0 24187-3 0 9991 2 46287 97.4460 244.0288 0001185 221.9581 138.1559 15.12747723 99379 SALSAT 1 46495U 20068K 22174.48136689 .00001108 00000-0 83454-4 0 9993 2 46495 97.7293 115.7836 0014606 255.8528 104.1075 15.04539217 95098 BY70-3 1 46839U 20079N 22174.86859706 .00023269 00000-0 54174-3 0 9999 2 46839 97.1980 246.8791 0003702 312.4302 157.8428 15.42281326 91234 SPOC 1 46921U 98067RR 22174.46466455 .03071640 12060-4 87748-3 0 9999 2 46921 51.6168 253.7633 0010777 326.3417 33.6918 16.26625966 92974 Neutron-1 1 46923U 98067RT 22174.64002943 .02538661 12011-4 84664-3 0 9999 2 46923 51.6179 253.4568 0012255 338.6681 21.3827 16.24803563 93034 CAPE 3 1 47309U 21002A 22174.64550914 .00007154 00000-0 29469-3 0 9998 2 47309 60.6845 341.2616 0021288 339.2490 20.7732 15.24876592 79396 AO-109 1 47311U 21002C 22174.43355868 .00007100 00000-0 28867-3 0 9991 2 47311 60.6862 339.7347 0017185 340.8031 19.2407 15.25392237 79371 MiTEE 1 1 47314U 21002F 22174.46693957 .00014794 00000-0 50744-3 0 9997 2 47314 60.6829 332.8918 0014563 328.8465 31.1761 15.30341275 79513 ExoCube 2 1 47319U 21002L 22174.82735833 .00005819 00000-0 24153-3 0 9995 2 47319 60.6845 339.3264 0018749 341.9953 18.0469 15.24960721 79380 UVSQ-SAT 1 47438U 21006AB 22174.41965485 .00005176 00000-0 27444-3 0 9996 2 47438 97.4370 233.3074 0010316 250.3783 109.6336 15.15762651 78180 YUSAT 1 1 47439U 21006AC 22174.12416188 .00006694 00000-0 34948-3 0 9999 2 47439 97.4375 233.1170 0010180 251.2167 108.7962 15.16201932 78148 SOMP 2b 1 47445U 21006AJ 22174.74929506 .00003897 00000-0 20937-3 0 9992 2 47445 97.4343 233.2913 0009947 253.8437 106.1701 15.15444773 78226 IDEASSat 1 47458U 21006AX 22174.40173461 .00004671 00000-0 25149-3 0 9991 2 47458 97.4430 233.4531 0009133 252.9554 107.0678 15.15278897 78160 Tsuru 1 47927U 98067SD 22174.65766563 .00581102 16698-3 92556-3 0 9999 2 47927 51.6264 267.9493 0012898 334.7466 25.2913 16.02944318 72791 Maya-2 1 47929U 98067SF 22174.23671839 .00560930 15182-3 99328-3 0 9993 2 47929 51.6260 270.3939 0012475 332.7940 27.2415 16.01164173 72687 GuaraniSat-1 1 47931U 98067SH 22174.51620929 .00608190 18300-3 96603-3 0 9990 2 47931 51.6245 268.5120 0012951 335.2031 24.8356 16.02988723 72775 CubeSX-Sirius-HSE 1 47951U 21022V 22174.80641135 .00004731 00000-0 31389-3 0 9999 2 47951 97.5304 74.1927 0022611 122.2413 328.6018 15.07515218 68954 CubeSX-HSE 1 47952U 21022W 22174.79257329 .00004365 00000-0 28949-3 0 9997 2 47952 97.5306 74.1995 0022581 121.4852 324.6072 15.07572537 68959 KSU-Cubesat 1 47954U 21022Y 22174.47470837 .00004422 00000-0 29151-3 0 9995 2 47954 97.5307 73.9904 0022000 122.0428 238.2941 15.07798408 68638 GRBAlpha 1 47959U 21022AD 22174.79072778 .00004347 00000-0 28818-3 0 9992 2 47959 97.5310 74.2347 0022516 121.6625 325.0177 15.07595125 67779 Orbicraft-Zorkiy 1 47960U 21022AE 22174.89318589 .00003887 00000-0 25717-3 0 9991 2 47960 97.5313 74.4693 0022051 120.5624 302.0059 15.07736765 68481 STECCO 1 47962U 21022AG 22174.77452711 .00006456 00000-0 40279-3 0 9991 2 47962 97.5293 75.0400 0017457 114.1324 331.0855 15.09727091 67820 DO-111 1 47963U 21022AH 22174.49464522 .00013055 00000-0 72593-3 0 9991 2 47963 97.5319 75.7837 0019119 108.7939 251.5368 15.13650752 67862 MO-110 1 47964U 21022AJ 22173.94040188 .00007156 00000-0 44108-3 0 9995 2 47964 97.5304 74.4749 0020128 114.7397 245.5930 15.10088969 67716 FEES 1 48082U 21022AL 22174.39996100 .00008526 00000-0 51770-3 0 9996 2 48082 97.5316 74.8447 0016538 109.5137 250.7880 15.10633997 67487 RamSat 1 48850U 98067SL 22174.83342905 .00066116 00000-0 50714-3 0 9995 2 48850 51.6367 285.0307 0002037 352.7211 7.3757 15.71453062 58335 TUBIN 1 48900U 21059X 22174.79490010 .00003790 00000-0 21229-3 0 9992 2 48900 97.5555 304.0437 0011607 83.9704 58.6661 15.13972360 54879 IT-SPINS 1 49017U 21013G 22174.27888887 .00009732 00000-0 37738-3 0 9992 2 49017 51.6010 11.8114 0008820 99.7107 260.4868 15.26725365 54671 LEDSAT 1 49069U 21073D 22174.48478338 .00003668 00000-0 23606-3 0 9995 2 49069 97.5240 247.2545 0025554 273.7376 86.0930 15.08730688 46745 CUTE 1 49263U 21088D 22174.45337548 .00003631 00000-0 27189-3 0 9991 2 49263 97.5898 242.2532 0021251 48.6136 311.6912 15.03167481 40329 Binar-1 1 49272U 98067SR 22174.59510884 .00080072 00000-0 61332-3 0 9995 2 49272 51.6345 290.1602 0006372 319.8999 40.1528 15.71387616 40634 Maya-3 1 49273U 98067SS 22174.63497693 .00192141 00000-0 87150-3 0 9990 2 49273 51.6300 285.1292 0009737 323.8969 36.1376 15.82753746 40702 Maya-4 1 49274U 98067ST 22174.47358670 .00185705 00000-0 88278-3 0 9994 2 49274 51.6327 286.3084 0009058 320.8113 39.2232 15.81776788 40679 CUAVA-1 1 49275U 98067SU 22174.83321848 .00132926 00000-0 80856-3 0 9993 2 49275 51.6339 286.2769 0006558 322.7057 129.4111 15.76523876 40650 TeikyoSat 4 1 49396U 21102B 22174.42579650 .00000907 00000-0 76205-4 0 9991 2 49396 97.5249 232.3040 0013326 239.3523 120.6388 15.00627523 33943 Z-Sat 1 49399U 21102E 22174.82405542 .00001273 00000-0 99643-4 0 9994 2 49399 97.5386 233.4353 0022441 201.6452 158.3827 15.02593694 34049 KOSEN 1 1 49402U 21102H 22174.74882015 .00001515 00000-0 11457-3 0 9999 2 49402 97.5301 233.4844 0021765 193.6809 166.3830 15.03639835 34053 HO-113 1 50466U 21131B 22174.84957573 .00000111 00000-0 50998-4 0 9991 2 50466 98.5805 252.1005 0005809 124.0975 236.0764 14.38502933 25837 Tevel 1 50999U 22002R 22174.79443043 .00007499 00000-0 40458-3 0 9991 2 50999 97.4801 241.7626 0012021 45.0766 50.3606 15.14982319 24385 Grizu-263a 1 51025U 22002AT 22174.14588505 .00013174 00000-0 66960-3 0 9997 2 51025 97.4974 241.7276 0013371 51.6020 308.6411 15.16913569 24301 NO-116 1 51031U 22002AZ 22174.44835304 .00008281 00000-0 43373-3 0 9995 2 51031 97.4932 241.8413 0013883 49.8918 310.3529 15.15977319 24345 IRIS-A 1 51044U 22002BN 22174.81568848 .00003382 00000-0 19232-3 0 9990 2 51044 97.4819 241.5802 0010286 50.8320 309.3823 15.13508254 24379 DELFI-PQ 1 51074U 22002CU 22174.43371818 .00009608 00000-0 48103-3 0 9996 2 51074 97.5058 242.4337 0015174 77.6586 282.6345 15.17503670 24365 SO-115 1 51080U 22002DA 22174.40871103 .00007954 00000-0 40859-3 0 9994 2 51080 97.5071 242.3415 0014985 77.3237 282.9670 15.16661139 24359 SO-114 1 51081U 22002DB 22174.40926520 .00007916 00000-0 40660-3 0 9997 2 51081 97.5063 242.3234 0015344 77.0279 283.2667 15.16663596 24352 OreSat0 1 52017U 22026K 22174.56911560 .00004791 00000-0 25735-3 0 9992 2 52017 97.5015 174.3355 0025367 251.6220 108.2254 15.15119337 15119 Planetum 1 1 52738U 22057G 22174.07712792 .00005355 00000-0 31553-3 0 9990 2 52738 97.5123 288.6384 0009408 146.1729 214.0103 15.11975207 4287 Foresail-1 1 52766U 22057AL 22174.58083002 .00003631 00000-0 20706-3 0 9995 2 52766 97.5225 289.2317 0015135 129.3212 230.9363 15.13308917 4362 /EX